User: anonymous   Login
Location: Unspecified
(0.0000°N, 0.0000°E)
Time: 09:42:24
(UTC+00:00)
Language:

DMSP B5D2-3 - Orbit

View from above orbital plane
View from above orbital plane
View from above satellite
View from above satellite

Ground track
Ground track

The orbit data is extracted from the following two-line orbital elements,

1 18123U 87053A   19322.60326549  .00000010  00000-0  25980-4 0  9999
2 18123  98.7241 148.5794 0012415 227.5573 132.4553 14.18705365676327
Epoch (UTC): 18 November 2019 14:28:42
Eccentricity: 0.0012415
inclination: 98.7241°
perigee height: 821 km
apogee height: 838 km
right ascension of ascending node: 148.5794°
argument of perigee: 227.5573°
revolutions per day: 14.18705365
mean anomaly at epoch: 132.4553°
orbit number at epoch: 67632

The dashed part of the orbit path shows where the satellite is in the earth's shadow,  

DLR